| time (UTC) | temp F | wind direction | speed knots | gust knots | rain 1hr in | rain 24hr in | rain mn in | humidity % | barometer mb |
| 20260902203520 | 99 | 163 | 0.0 | 4.3 | 0.00 | 0.00 | 0.00 | 46 | 1015.7 |
| 20260902203041 | 99 | 31 | 0.0 | 4.3 | 0.00 | 0.00 | 0.00 | 46 | 1015.7 |
| 20260902202520 | 99 | 0 | 0.0 | 4.3 | 0.00 | 0.00 | 0.00 | 46 | 1015.9 |
| 20260902202019 | 99 | 360 | 0.0 | 2.6 | 0.00 | 0.00 | 0.00 | 45 | 1015.8 |
| 20260902201538 | 99 | 0 | 0.0 | 1.7 | 0.00 | 0.00 | 0.00 | 44 | 1016.0 |
| 20260902201024 | 99 | 269 | 0.0 | 1.7 | 0.00 | 0.00 | 0.00 | 45 | 1016.1 |
| 20260902200520 | 100 | 0 | 0.0 | 1.7 | 0.00 | 0.00 | 0.00 | 43 | 1016.2 |
| 20260902200041 | 99 | 0 | 0.0 | 1.7 | 0.00 | 0.00 | 0.00 | 47 | 1016.2 |
| 20260902195520 | 99 | 0 | 0.0 | 5.2 | 0.00 | 0.00 | 0.00 | 45 | 1016.2 |
| 20260902195020 | 99 | 0 | 0.0 | 5.2 | 0.00 | 0.00 | 0.00 | 44 | 1016.3 |
| 20260902194540 | 98 | 66 | 0.0 | 1.7 | 0.00 | 0.00 | 0.00 | 51 | 1016.3 |
| 20260902194020 | 97 | 0 | 0.0 | 1.7 | 0.00 | 0.00 | 0.00 | 50 | 1016.4 |
| 20260902193519 | 97 | 0 | 0.0 | 2.6 | 0.00 | 0.00 | 0.00 | 49 | 1016.5 |
| 20260902193037 | 97 | 0 | 0.0 | 2.6 | 0.00 | 0.00 | 0.00 | 47 | 1016.7 |
| 20260902192518 | 97 | 0 | 0.0 | 2.6 | 0.00 | 0.00 | 0.00 | 48 | 1016.8 |
| 20260902192020 | 98 | 0 | 0.0 | 2.6 | 0.00 | 0.00 | 0.00 | 47 | 1016.8 |
| 20260902191541 | 98 | 0 | 0.0 | 3.5 | 0.00 | 0.00 | 0.00 | 46 | 1016.9 |
| 20260902191017 | 98 | 0 | 0.0 | 3.5 | 0.00 | 0.00 | 0.00 | 45 | 1017.1 |
| 20260902190520 | 99 | 0 | 0.0 | 2.6 | 0.00 | 0.00 | 0.00 | 45 | 1017.0 |
| 20260902190047 | 99 | 0 | 0.0 | 2.6 | 0.00 | 0.00 | 0.00 | 44 | 1017.1 |
| 20260902185518 | 100 | 0 | 0.0 | 3.5 | 0.00 | 0.00 | 0.00 | 44 | 1017.2 |
| 20260902185018 | 100 | 0 | 0.9 | 3.5 | 0.00 | 0.00 | 0.00 | 44 | 1017.3 |
| 20260902184539 | 100 | 0 | 0.9 | 3.5 | 0.00 | 0.00 | 0.00 | 49 | 1017.3 |
| 20260902184025 | 99 | 0 | 0.9 | 4.3 | 0.00 | 0.00 | 0.00 | 44 | 1017.3 |
| 20260902183524 | 99 | 231 | 0.9 | 4.3 | 0.00 | 0.00 | 0.00 | 46 | 1017.3 |
| 20260902183041 | 99 | 0 | 0.0 | 3.5 | 0.00 | 0.00 | 0.00 | 49 | 1017.5 |
| 20260902182521 | 98 | 0 | 0.0 | 2.6 | 0.00 | 0.00 | 0.00 | 48 | 1017.5 |
| 20260902182021 | 98 | 0 | 0.0 | 2.6 | 0.00 | 0.00 | 0.00 | 51 | 1017.6 |
| 20260902181542 | 99 | 0 | 0.0 | 2.6 | 0.00 | 0.00 | 0.00 | 46 | 1017.7 |
| 20260902181020 | 99 | 0 | 0.0 | 1.7 | 0.00 | 0.00 | 0.00 | 43 | 1017.8 |
| 20260902180517 | 100 | 0 | 0.0 | 3.5 | 0.00 | 0.00 | 0.00 | 45 | 1017.8 |
| 20260902180043 | 100 | 187 | 0.0 | 3.5 | 0.00 | 0.00 | 0.00 | 45 | 1017.8 |
| 20260902175521 | 100 | 164 | 0.0 | 6.1 | 0.00 | 0.00 | 0.00 | 45 | 1017.9 |
| 20260902175024 | 100 | 177 | 1.7 | 6.1 | 0.00 | 0.00 | 0.00 | 46 | 1017.9 |
| 20260902174538 | 99 | 0 | 0.9 | 5.2 | 0.00 | 0.00 | 0.00 | 47 | 1018.0 |
| 20260902174020 | 99 | 155 | 0.9 | 3.5 | 0.00 | 0.00 | 0.00 | 50 | 1018.1 |
| 20260902173518 | 99 | 259 | 0.0 | 3.5 | 0.00 | 0.00 | 0.00 | 50 | 1018.2 |
| 20260902173041 | 99 | 0 | 0.0 | 3.5 | 0.00 | 0.00 | 0.00 | 47 | 1018.4 |
| 20260902172521 | 99 | 202 | 0.0 | 3.5 | 0.00 | 0.00 | 0.00 | 49 | 1018.3 |
| 20260902172018 | 99 | 161 | 0.0 | 3.5 | 0.00 | 0.00 | 0.00 | 53 | 1018.5 |
| 20260902171542 | 98 | 124 | 0.0 | 2.6 | 0.00 | 0.00 | 0.00 | 52 | 1018.4 |
| 20260902171016 | 98 | 136 | 0.0 | 3.5 | 0.00 | 0.00 | 0.00 | 51 | 1018.8 |
| 20260902170518 | 98 | 0 | 0.9 | 3.5 | 0.00 | 0.00 | 0.00 | 49 | 1018.7 |
| 20260902170041 | 97 | 195 | 0.9 | 3.5 | 0.00 | 0.00 | 0.00 | 52 | 1018.9 |
| 20260902165518 | 97 | 265 | 0.0 | 2.6 | 0.00 | 0.00 | 0.00 | 57 | 1018.9 |
| 20260902165025 | 97 | 0 | 0.0 | 2.6 | 0.00 | 0.00 | 0.00 | 52 | 1019.1 |
| 20260902164536 | 97 | 0 | 0.0 | 3.5 | 0.00 | 0.00 | 0.00 | 51 | 1019.1 |
| 20260902164020 | 97 | 0 | 0.9 | 3.5 | 0.00 | 0.00 | 0.00 | 48 | 1019.1 |
| 20260902163524 | 98 | 32 | 0.0 | 3.5 | 0.00 | 0.00 | 0.00 | 50 | 1019.3 |
| 20260902163053 | 98 | 92 | 0.0 | 2.6 | 0.00 | 0.00 | 0.00 | 49 | 1019.3 |
| 20260902162524 | 98 | 129 | 0.0 | 1.7 | 0.00 | 0.00 | 0.00 | 50 | 1019.2 |
| 20260902162024 | 98 | 0 | 0.0 | 2.6 | 0.00 | 0.00 | 0.00 | 51 | 1019.3 |
| 20260902161543 | 97 | 204 | 0.9 | 3.5 | 0.00 | 0.00 | 0.00 | 53 | 1019.2 |
| 20260902161024 | 97 | 0 | 0.9 | 3.5 | 0.00 | 0.00 | 0.00 | 56 | 1019.3 |
| 20260902160524 | 97 | 171 | 0.9 | 3.5 | 0.00 | 0.00 | 0.00 | 52 | 1019.3 |
| 20260902160040 | 97 | 0 | 0.0 | 3.5 | 0.00 | 0.00 | 0.00 | 53 | 1019.3 |
| 20260902155519 | 96 | 201 | 0.0 | 6.1 | 0.00 | 0.00 | 0.00 | 53 | 1019.3 |
| 20260902155023 | 96 | 289 | 0.9 | 6.1 | 0.00 | 0.00 | 0.00 | 56 | 1019.4 |
| 20260902154541 | 95 | 204 | 1.7 | 3.5 | 0.00 | 0.00 | 0.00 | 61 | 1019.5 |
| 20260902154024 | 94 | 324 | 0.0 | 3.5 | 0.00 | 0.00 | 0.00 | 59 | 1019.5 |
| 20260902153525 | 94 | 0 | 0.9 | 3.5 | 0.00 | 0.00 | 0.00 | 61 | 1019.5 |
| 20260902153045 | 93 | 0 | 0.0 | 2.6 | 0.00 | 0.00 | 0.00 | 58 | 1019.6 |
| 20260902152521 | 93 | 336 | 0.9 | 2.6 | 0.00 | 0.00 | 0.00 | 60 | 1019.6 |
| 20260902152023 | 93 | 317 | 0.0 | 2.6 | 0.00 | 0.00 | 0.00 | 61 | 1019.5 |
| 20260902151540 | 92 | 59 | 0.0 | 1.7 | 0.00 | 0.00 | 0.00 | 66 | 1019.4 |
| 20260902151022 | 92 | 0 | 0.0 | 0.9 | 0.00 | 0.00 | 0.00 | 63 | 1019.5 |
| 20260902150520 | 91 | 0 | 0.0 | 0.9 | 0.00 | 0.00 | 0.00 | 65 | 1019.4 |
| 20260902150041 | 91 | 0 | 0.0 | 0.9 | 0.00 | 0.00 | 0.00 | 67 | 1019.3 |
| 20260902145521 | 91 | 0 | 0.0 | 2.6 | 0.00 | 0.00 | 0.00 | 66 | 1019.4 |
| 20260902145028 | 91 | 0 | 0.0 | 2.6 | 0.00 | 0.00 | 0.00 | 67 | 1019.3 |
| 20260902144541 | 91 | 0 | 0.0 | 1.7 | 0.00 | 0.00 | 0.00 | 67 | 1019.4 |
| 20260902144023 | 91 | 0 | 0.0 | 1.7 | 0.00 | 0.00 | 0.00 | 69 | 1019.2 |
| 20260902143522 | 90 | 0 | 0.0 | 0.9 | 0.00 | 0.00 | 0.00 | 69 | 1019.3 |
| 20260902143038 | 90 | 0 | 0.0 | 0.9 | 0.00 | 0.00 | 0.00 | 69 | 1019.2 |
| 20260902142520 | 90 | 0 | 0.0 | 0.9 | 0.00 | 0.00 | 0.00 | 70 | 1019.2 |
| 20260902142018 | 90 | 0 | 0.0 | 0.9 | 0.00 | 0.00 | 0.00 | 70 | 1019.3 |
| 20260902141543 | 90 | 59 | 0.0 | 1.7 | 0.00 | 0.00 | 0.00 | 68 | 1019.1 |
| 20260902141020 | 90 | 0 | 0.0 | 1.7 | 0.00 | 0.00 | 0.00 | 67 | 1019.2 |
| 20260902140521 | 90 | 0 | 0.0 | 0.9 | 0.00 | 0.00 | 0.00 | 70 | 1019.3 |
| 20260902140044 | 89 | 0 | 0.0 | 0.9 | 0.00 | 0.00 | 0.00 | 72 | 1019.3 |
| 20260902135521 | 88 | 0 | 0.0 | 0.9 | 0.00 | 0.00 | 0.00 | 73 | 1019.4 |
| 20260902135021 | 87 | 0 | 0.0 | 0.9 | 0.00 | 0.00 | 0.00 | 73 | 1019.3 |
| 20260902134600 | 86 | 0 | 0.0 | 0.9 | 0.00 | 0.00 | 0.00 | 73 | 1019.3 |
| 20260902134029 | 85 | 0 | 0.0 | 0.9 | 0.00 | 0.00 | 0.00 | 73 | 1019.3 |
| 20260902133519 | 84 | 0 | 0.0 | 0.9 | 0.00 | 0.00 | 0.00 | 74 | 1019.4 |
| 20260902133041 | 83 | 0 | 0.0 | 0.9 | 0.00 | 0.00 | 0.00 | 73 | 1019.3 |
| 20260902132519 | 82 | 0 | 0.0 | 0.9 | 0.00 | 0.00 | 0.00 | 73 | 1019.2 |
| 20260902132023 | 81 | 0 | 0.0 | 0.9 | 0.00 | 0.00 | 0.00 | 70 | 1019.3 |
| 20260902131547 | 80 | 0 | 0.0 | 0.9 | 0.00 | 0.00 | 0.00 | 63 | 1019.3 |
| 20260902131023 | 79 | 0 | 0.0 | 0.9 | 0.00 | 0.00 | 0.00 | 58 | 1019.3 |
| 20260902130522 | 78 | 0 | 0.0 | 0.0 | 0.00 | 0.00 | 0.00 | 49 | 1019.3 |
| 20260902130046 | 77 | 0 | 0.0 | 0.0 | 0.00 | 0.00 | 0.00 | 41 | 1019.3 |
| 20260902125521 | 77 | 0 | 0.0 | 0.0 | 0.00 | 0.00 | 0.00 | 36 | 1019.4 |
| 20260902125021 | 77 | 0 | 0.0 | 0.0 | 0.00 | 0.00 | 0.00 | 32 | 1019.4 |
| 20260902124540 | 76 | 0 | 0.0 | 0.0 | 0.00 | 0.00 | 0.00 | 28 | 1019.4 |
| 20260902124020 | 76 | 0 | 0.0 | 0.0 | 0.00 | 0.00 | 0.00 | 27 | 1019.3 |
| 20260902123517 | 76 | 0 | 0.0 | 0.0 | 0.00 | 0.00 | 0.00 | 26 | 1019.3 |
| 20260902123040 | 75 | 0 | 0.0 | 0.0 | 0.00 | 0.00 | 0.00 | 25 | 1019.3 |
| 20260902122518 | 75 | 0 | 0.0 | 0.0 | 0.00 | 0.00 | 0.00 | 26 | 1019.4 |
| 20260902122021 | 75 | 0 | 0.0 | 0.0 | 0.00 | 0.00 | 0.00 | 25 | 1019.3 |
| 20260902121547 | 75 | 0 | 0.0 | 0.0 | 0.00 | 0.00 | 0.00 | 25 | 1019.2 |
| 20260902121021 | 75 | 0 | 0.0 | 0.0 | 0.00 | 0.00 | 0.00 | 25 | 1019.1 |
| 20260902120519 | 75 | 0 | 0.0 | 0.0 | 0.00 | 0.00 | 0.00 | 29 | 1019.1 |
| 20260902120041 | 75 | 0 | 0.0 | 0.0 | 0.00 | 0.00 | 0.00 | 32 | 1019.0 |
| 20260902115517 | 75 | 0 | 0.0 | 0.0 | 0.00 | 0.00 | 0.00 | 31 | 1018.8 |
| 20260902115022 | 74 | 0 | 0.0 | 0.0 | 0.00 | 0.00 | 0.00 | 33 | 1018.8 |
| 20260902114547 | 74 | 0 | 0.0 | 0.0 | 0.00 | 0.00 | 0.00 | 34 | 1018.8 |
| 20260902114023 | 75 | 0 | 0.0 | 0.0 | 0.00 | 0.00 | 0.00 | 35 | 1018.7 |
| 20260902113518 | 75 | 0 | 0.0 | 0.0 | 0.00 | 0.00 | 0.00 | 37 | 1018.7 |
| 20260902113041 | 75 | 0 | 0.0 | 0.0 | 0.00 | 0.00 | 0.00 | 37 | 1018.5 |
| 20260902112521 | 75 | 0 | 0.0 | 0.0 | 0.00 | 0.00 | 0.00 | 39 | 1018.6 |
| 20260902112022 | 75 | 0 | 0.0 | 0.0 | 0.00 | 0.00 | 0.00 | 41 | 1018.6 |
| 20260902111541 | 75 | 0 | 0.0 | 0.0 | 0.00 | 0.00 | 0.00 | 41 | 1018.5 |
| 20260902111020 | 75 | 0 | 0.0 | 0.0 | 0.00 | 0.00 | 0.00 | 40 | 1018.4 |
| 20260902110519 | 75 | 0 | 0.0 | 0.0 | 0.00 | 0.00 | 0.00 | 44 | 1018.3 |
| 20260902110040 | 75 | 0 | 0.0 | 0.0 | 0.00 | 0.00 | 0.00 | 44 | 1018.3 |
| 20260902105521 | 75 | 0 | 0.0 | 0.0 | 0.00 | 0.00 | 0.00 | 44 | 1018.3 |
| 20260902105020 | 75 | 0 | 0.0 | 0.0 | 0.00 | 0.00 | 0.00 | 45 | 1018.2 |
| 20260902104545 | 75 | 0 | 0.0 | 0.0 | 0.00 | 0.00 | 0.00 | 48 | 1018.3 |
| 20260902104026 | 75 | 0 | 0.0 | 0.0 | 0.00 | 0.00 | 0.00 | 48 | 1018.2 |
| 20260902103525 | 75 | 0 | 0.0 | 0.0 | 0.00 | 0.00 | 0.00 | 48 | 1018.2 |
| 20260902103042 | 75 | 0 | 0.0 | 0.0 | 0.00 | 0.00 | 0.00 | 49 | 1018.1 |
| 20260902102521 | 75 | 0 | 0.0 | 0.0 | 0.00 | 0.00 | 0.00 | 51 | 1018.1 |
| 20260902102022 | 75 | 0 | 0.0 | 0.0 | 0.00 | 0.00 | 0.00 | 50 | 1018.1 |
| 20260902101540 | 75 | 0 | 0.0 | 0.0 | 0.00 | 0.00 | 0.00 | 51 | 1018.1 |
| 20260902101019 | 75 | 0 | 0.0 | 0.0 | 0.00 | 0.00 | 0.00 | 53 | 1018.1 |
| 20260902100518 | 75 | 0 | 0.0 | 0.0 | 0.00 | 0.00 | 0.00 | 53 | 1018.0 |
| 20260902100057 | 75 | 0 | 0.0 | 0.0 | 0.00 | 0.00 | 0.00 | 54 | 1017.9 |
| 20260902095525 | 75 | 0 | 0.0 | 0.0 | 0.00 | 0.00 | 0.00 | 57 | 1017.8 |
| 20260902095023 | 75 | 0 | 0.0 | 0.0 | 0.00 | 0.00 | 0.00 | 58 | 1017.8 |
| 20260902094544 | 75 | 0 | 0.0 | 0.0 | 0.00 | 0.00 | 0.00 | 59 | 1017.8 |
| 20260902094021 | 75 | 0 | 0.0 | 0.0 | 0.00 | 0.00 | 0.00 | 60 | 1017.8 |
| 20260902093525 | 75 | 0 | 0.0 | 0.0 | 0.00 | 0.00 | 0.00 | 62 | 1017.8 |
| 20260902093041 | 76 | 0 | 0.0 | 0.0 | 0.00 | 0.00 | 0.00 | 61 | 1017.5 |
| 20260902092518 | 76 | 0 | 0.0 | 0.0 | 0.00 | 0.00 | 0.00 | 62 | 1017.6 |
| 20260902092018 | 76 | 0 | 0.0 | 0.0 | 0.00 | 0.00 | 0.00 | 62 | 1017.7 |
| 20260902091600 | 76 | 0 | 0.0 | 0.0 | 0.00 | 0.00 | 0.00 | 63 | 1017.6 |
| 20260902091018 | 76 | 0 | 0.0 | 0.0 | 0.00 | 0.00 | 0.00 | 64 | 1017.6 |
| 20260902090517 | 76 | 0 | 0.0 | 0.0 | 0.00 | 0.00 | 0.00 | 64 | 1017.4 |
| 20260902090044 | 76 | 0 | 0.0 | 0.0 | 0.00 | 0.00 | 0.00 | 66 | 1017.2 |
| 20260902085521 | 76 | 0 | 0.0 | 0.0 | 0.00 | 0.00 | 0.00 | 66 | 1017.4 |
| 20260902085021 | 76 | 0 | 0.0 | 0.0 | 0.00 | 0.00 | 0.00 | 65 | 1017.3 |
| 20260902084544 | 76 | 0 | 0.0 | 0.0 | 0.00 | 0.00 | 0.00 | 66 | 1017.3 |
| 20260902084018 | 76 | 0 | 0.0 | 0.0 | 0.00 | 0.00 | 0.00 | 66 | 1017.2 |
| 20260902083523 | 76 | 0 | 0.0 | 0.0 | 0.00 | 0.00 | 0.00 | 67 | 1017.3 |
| 20260902083040 | 76 | 0 | 0.0 | 0.0 | 0.00 | 0.00 | 0.00 | 67 | 1017.4 |
| 20260902082520 | 76 | 0 | 0.0 | 0.0 | 0.00 | 0.00 | 0.00 | 67 | 1017.3 |
| 20260902082022 | 76 | 0 | 0.0 | 0.0 | 0.00 | 0.00 | 0.00 | 67 | 1017.3 |
| 20260902081540 | 76 | 0 | 0.0 | 0.0 | 0.00 | 0.00 | 0.00 | 68 | 1017.4 |
| 20260902081017 | 76 | 0 | 0.0 | 0.0 | 0.00 | 0.00 | 0.00 | 68 | 1017.3 |
| 20260902080519 | 76 | 0 | 0.0 | 0.0 | 0.00 | 0.00 | 0.00 | 70 | 1017.3 |
| 20260902080049 | 77 | 0 | 0.0 | 0.0 | 0.00 | 0.00 | 0.00 | 70 | 1017.2 |
| 20260902075521 | 77 | 0 | 0.0 | 0.0 | 0.00 | 0.00 | 0.00 | 71 | 1017.2 |
| 20260902075020 | 77 | 0 | 0.0 | 0.0 | 0.00 | 0.00 | 0.00 | 71 | 1017.2 |
| 20260902074541 | 77 | 0 | 0.0 | 0.0 | 0.00 | 0.00 | 0.00 | 71 | 1017.1 |
| 20260902074019 | 77 | 0 | 0.0 | 0.0 | 0.00 | 0.00 | 0.00 | 72 | 1017.0 |
| 20260902073520 | 77 | 0 | 0.0 | 0.0 | 0.00 | 0.00 | 0.00 | 71 | 1017.1 |
| 20260902073040 | 77 | 0 | 0.0 | 0.0 | 0.00 | 0.00 | 0.00 | 71 | 1017.2 |
| 20260902072519 | 77 | 0 | 0.0 | 0.0 | 0.00 | 0.00 | 0.00 | 72 | 1017.0 |
| 20260902072020 | 77 | 0 | 0.0 | 0.0 | 0.00 | 0.00 | 0.00 | 72 | 1017.2 |
| 20260902071557 | 77 | 0 | 0.0 | 0.0 | 0.00 | 0.00 | 0.00 | 73 | 1017.1 |
| 20260902071025 | 77 | 0 | 0.0 | 0.0 | 0.00 | 0.00 | 0.00 | 73 | 1017.3 |
| 20260902070523 | 77 | 0 | 0.0 | 0.0 | 0.00 | 0.00 | 0.00 | 74 | 1017.2 |
| 20260902070042 | 77 | 0 | 0.0 | 0.0 | 0.00 | 0.00 | 0.00 | 74 | 1017.0 |
| 20260902065524 | 77 | 0 | 0.0 | 0.0 | 0.00 | 0.00 | 0.00 | 74 | 1017.1 |
| 20260902065018 | 78 | 0 | 0.0 | 0.0 | 0.00 | 0.00 | 0.00 | 74 | 1017.1 |
| 20260902064540 | 78 | 0 | 0.0 | 0.0 | 0.00 | 0.00 | 0.00 | 74 | 1017.1 |
| 20260902064023 | 78 | 0 | 0.0 | 0.0 | 0.00 | 0.00 | 0.00 | 74 | 1017.2 |
| 20260902063517 | 78 | 0 | 0.0 | 0.0 | 0.00 | 0.00 | 0.00 | 74 | 1017.3 |
| 20260902063044 | 78 | 0 | 0.0 | 0.0 | 0.00 | 0.00 | 0.00 | 74 | 1017.3 |
| 20260902062524 | 78 | 0 | 0.0 | 0.0 | 0.00 | 0.00 | 0.00 | 74 | 1017.4 |
| 20260902062021 | 78 | 0 | 0.0 | 0.0 | 0.00 | 0.00 | 0.00 | 75 | 1017.4 |
| 20260902061021 | 78 | 0 | 0.0 | 0.0 | 0.00 | 0.00 | 0.00 | 74 | 1017.3 |
| 20260902060520 | 79 | 0 | 0.0 | 0.0 | 0.00 | 0.00 | 0.00 | 74 | 1017.3 |
| 20260902060042 | 79 | 0 | 0.0 | 0.0 | 0.00 | 0.00 | 0.00 | 74 | 1017.4 |
| 20260902055519 | 79 | 0 | 0.0 | 0.0 | 0.00 | 0.00 | 0.00 | 75 | 1017.4 |
| 20260902055020 | 79 | 0 | 0.0 | 0.0 | 0.00 | 0.00 | 0.00 | 75 | 1017.4 |
| 20260902054545 | 79 | 0 | 0.0 | 0.0 | 0.00 | 0.00 | 0.00 | 74 | 1017.4 |
| 20260902054025 | 80 | 0 | 0.0 | 0.0 | 0.00 | 0.00 | 0.00 | 74 | 1017.3 |
| 20260902053521 | 80 | 0 | 0.0 | 0.0 | 0.00 | 0.00 | 0.00 | 74 | 1017.5 |
| 20260902053047 | 80 | 0 | 0.0 | 0.0 | 0.00 | 0.00 | 0.00 | 73 | 1017.3 |
| 20260902052521 | 80 | 0 | 0.0 | 0.0 | 0.00 | 0.00 | 0.00 | 73 | 1017.2 |
| 20260902052017 | 80 | 0 | 0.0 | 0.0 | 0.00 | 0.00 | 0.00 | 73 | 1017.3 |
| 20260902051540 | 81 | 0 | 0.0 | 0.0 | 0.00 | 0.00 | 0.00 | 73 | 1017.2 |
| 20260902051022 | 81 | 0 | 0.0 | 0.0 | 0.00 | 0.00 | 0.00 | 73 | 1017.3 |
| 20260902050520 | 81 | 0 | 0.0 | 0.0 | 0.00 | 0.00 | 0.00 | 72 | 1017.1 |
| 20260902050046 | 81 | 0 | 0.0 | 0.0 | 0.00 | 0.00 | 0.00 | 72 | 1017.2 |
| 20260902045519 | 81 | 0 | 0.0 | 0.0 | 0.00 | 0.00 | 0.00 | 72 | 1017.2 |
| 20260902045019 | 81 | 0 | 0.0 | 0.0 | 0.00 | 0.00 | 0.00 | 71 | 1017.3 |
| 20260902044542 | 82 | 0 | 0.0 | 0.0 | 0.00 | 0.00 | 0.00 | 71 | 1017.3 |
| 20260902044022 | 82 | 0 | 0.0 | 0.0 | 0.00 | 0.00 | 0.00 | 71 | 1017.4 |
| 20260902043519 | 82 | 0 | 0.0 | 0.9 | 0.00 | 0.00 | 0.00 | 70 | 1017.5 |
| 20260902043040 | 82 | 0 | 0.0 | 0.9 | 0.00 | 0.00 | 0.00 | 70 | 1017.4 |
| 20260902042520 | 82 | 0 | 0.0 | 0.9 | 0.00 | 0.00 | 0.00 | 70 | 1017.3 |
| 20260902042022 | 82 | 0 | 0.0 | 0.9 | 0.00 | 0.00 | 0.00 | 70 | 1017.4 |
| 20260902041544 | 82 | 0 | 0.0 | 1.7 | 0.00 | 0.00 | 0.00 | 70 | 1017.4 |
| 20260902041020 | 82 | 0 | 0.0 | 1.7 | 0.00 | 0.00 | 0.00 | 70 | 1017.3 |
| 20260902040521 | 82 | 0 | 0.0 | 1.7 | 0.00 | 0.00 | 0.00 | 70 | 1017.4 |
| 20260902040041 | 82 | 0 | 0.0 | 0.0 | 0.00 | 0.00 | 0.00 | 70 | 1017.5 |
| 20260902035518 | 82 | 0 | 0.0 | 0.0 | 0.00 | 0.00 | 0.00 | 70 | 1017.5 |
| 20260902035017 | 82 | 0 | 0.0 | 0.0 | 0.00 | 0.00 | 0.00 | 70 | 1017.5 |
| 20260902034538 | 82 | 0 | 0.0 | 0.0 | 0.00 | 0.00 | 0.00 | 70 | 1017.6 |
| 20260902034025 | 83 | 0 | 0.0 | 0.9 | 0.00 | 0.00 | 0.00 | 69 | 1017.4 |
| 20260902033521 | 83 | 0 | 0.0 | 1.7 | 0.00 | 0.00 | 0.00 | 69 | 1017.6 |
| 20260902033040 | 83 | 0 | 0.0 | 1.7 | 0.00 | 0.00 | 0.00 | 69 | 1017.6 |
| 20260902032521 | 83 | 0 | 0.0 | 1.7 | 0.00 | 0.00 | 0.00 | 69 | 1017.6 |
| 20260902032023 | 83 | 0 | 0.0 | 0.0 | 0.00 | 0.00 | 0.00 | 68 | 1017.6 |
| 20260902031540 | 83 | 0 | 0.0 | 0.0 | 0.00 | 0.00 | 0.00 | 68 | 1017.5 |
| 20260902031018 | 83 | 0 | 0.0 | 0.0 | 0.00 | 0.00 | 0.00 | 68 | 1017.4 |
| 20260902030521 | 84 | 0 | 0.0 | 0.0 | 0.00 | 0.00 | 0.00 | 67 | 1017.3 |
| 20260902030040 | 84 | 0 | 0.0 | 0.0 | 0.00 | 0.00 | 0.00 | 67 | 1017.6 |
| 20260902025519 | 84 | 0 | 0.0 | 0.0 | 0.00 | 0.00 | 0.00 | 67 | 1017.6 |
| 20260902025020 | 84 | 0 | 0.0 | 0.0 | 0.00 | 0.00 | 0.00 | 67 | 1017.7 |
| 20260902024538 | 84 | 0 | 0.0 | 0.0 | 0.00 | 0.00 | 0.00 | 66 | 1017.5 |
| 20260902024020 | 84 | 0 | 0.0 | 0.0 | 0.00 | 0.00 | 0.00 | 66 | 1017.5 |
| 20260902023519 | 85 | 0 | 0.0 | 0.0 | 0.00 | 0.00 | 0.00 | 65 | 1017.5 |
| 20260902023038 | 85 | 0 | 0.0 | 0.0 | 0.00 | 0.00 | 0.00 | 65 | 1017.5 |
| 20260902022519 | 85 | 0 | 0.0 | 0.0 | 0.00 | 0.00 | 0.00 | 65 | 1017.5 |
| 20260902022020 | 85 | 0 | 0.0 | 0.0 | 0.00 | 0.00 | 0.00 | 64 | 1017.4 |
| 20260902021548 | 85 | 0 | 0.0 | 0.0 | 0.00 | 0.00 | 0.00 | 64 | 1017.3 |
| 20260902021021 | 85 | 0 | 0.0 | 0.0 | 0.00 | 0.00 | 0.00 | 64 | 1017.2 |
| 20260902020520 | 85 | 0 | 0.0 | 0.0 | 0.00 | 0.00 | 0.00 | 63 | 1017.2 |
| 20260902020040 | 85 | 0 | 0.0 | 0.0 | 0.00 | 0.00 | 0.00 | 63 | 1017.0 |
| 20260902015521 | 85 | 0 | 0.0 | 0.0 | 0.00 | 0.00 | 0.00 | 63 | 1017.0 |
| 20260902015021 | 86 | 0 | 0.0 | 0.0 | 0.00 | 0.00 | 0.00 | 63 | 1017.0 |
| 20260902014544 | 86 | 0 | 0.0 | 0.0 | 0.00 | 0.00 | 0.00 | 62 | 1017.0 |
| 20260902014020 | 86 | 0 | 0.0 | 0.0 | 0.00 | 0.00 | 0.00 | 62 | 1017.0 |
| 20260902013517 | 86 | 0 | 0.0 | 0.0 | 0.00 | 0.00 | 0.00 | 62 | 1016.9 |
| 20260902013038 | 86 | 0 | 0.0 | 0.0 | 0.00 | 0.00 | 0.00 | 61 | 1016.7 |
| 20260902012520 | 87 | 0 | 0.0 | 0.0 | 0.00 | 0.00 | 0.00 | 61 | 1016.6 |
| 20260902012018 | 87 | 0 | 0.0 | 0.0 | 0.00 | 0.00 | 0.00 | 60 | 1016.5 |
| 20260902011548 | 87 | 0 | 0.0 | 0.0 | 0.00 | 0.00 | 0.00 | 60 | 1016.4 |
| 20260902011021 | 88 | 0 | 0.0 | 0.0 | 0.00 | 0.00 | 0.00 | 59 | 1016.3 |
| 20260902010519 | 88 | 0 | 0.0 | 0.0 | 0.00 | 0.00 | 0.00 | 58 | 1016.3 |
| 20260902010107 | 88 | 0 | 0.0 | 0.0 | 0.00 | 0.00 | 0.00 | 57 | 1016.4 |
| 20260902005519 | 89 | 0 | 0.0 | 0.0 | 0.00 | 0.00 | 0.00 | 57 | 1016.2 |
| 20260902005019 | 89 | 0 | 0.0 | 0.0 | 0.00 | 0.00 | 0.00 | 56 | 1016.2 |
| 20260902004543 | 89 | 0 | 0.0 | 0.0 | 0.00 | 0.00 | 0.00 | 56 | 1016.2 |
| 20260902004020 | 90 | 0 | 0.0 | 0.0 | 0.00 | 0.00 | 0.00 | 55 | 1016.2 |
| 20260902003520 | 90 | 0 | 0.0 | 0.9 | 0.00 | 0.00 | 0.00 | 54 | 1016.3 |
| 20260902003042 | 91 | 0 | 0.0 | 0.9 | 0.00 | 0.00 | 0.00 | 54 | 1016.3 |
| 20260902002519 | 92 | 0 | 0.0 | 0.9 | 0.00 | 0.00 | 0.00 | 53 | 1016.2 |
| 20260902002021 | 92 | 0 | 0.0 | 0.0 | 0.00 | 0.00 | 0.00 | 52 | 1016.2 |
| 20260902001541 | 93 | 0 | 0.0 | 0.0 | 0.00 | 0.00 | 0.00 | 51 | 1016.3 |
| 20260902001017 | 93 | 0 | 0.0 | 0.9 | 0.00 | 0.00 | 0.00 | 50 | 1016.3 |
| 20260902000519 | 94 | 0 | 0.0 | 0.9 | 0.00 | 0.00 | 0.00 | 50 | 1016.3 |
| 20260902000044 | 94 | 0 | 0.0 | 0.9 | 0.00 | 0.00 | 0.00 | 48 | 1016.3 |
| 20260901235521 | 94 | 0 | 0.0 | 0.0 | 0.00 | 0.00 | 0.00 | 47 | 1016.3 |
| 20260901235021 | 95 | 0 | 0.0 | 0.0 | 0.00 | 0.00 | 0.00 | 45 | 1016.4 |
| 20260901234541 | 95 | 0 | 0.0 | 0.0 | 0.00 | 0.00 | 0.00 | 45 | 1016.1 |
| 20260901234023 | 95 | 0 | 0.0 | 0.9 | 0.00 | 0.00 | 0.00 | 44 | 1016.3 |
| 20260901233523 | 95 | 0 | 0.0 | 0.9 | 0.00 | 0.00 | 0.00 | 43 | 1016.3 |
| 20260901233056 | 96 | 0 | 0.0 | 1.7 | 0.00 | 0.00 | 0.00 | 44 | 1016.3 |
| 20260901232520 | 96 | 0 | 0.0 | 1.7 | 0.00 | 0.00 | 0.00 | 43 | 1016.4 |
| 20260901232021 | 96 | 0 | 0.0 | 1.7 | 0.00 | 0.00 | 0.00 | 44 | 1016.3 |
| 20260901231550 | 96 | 0 | 0.0 | 1.7 | 0.00 | 0.00 | 0.00 | 43 | 1016.3 |
| 20260901231017 | 96 | 0 | 0.0 | 0.9 | 0.00 | 0.00 | 0.00 | 43 | 1016.3 |
| 20260901230518 | 96 | 0 | 0.0 | 0.9 | 0.00 | 0.00 | 0.00 | 43 | 1016.4 |
| 20260901230041 | 97 | 0 | 0.0 | 2.6 | 0.00 | 0.00 | 0.00 | 42 | 1016.5 |
| 20260901225521 | 97 | 0 | 0.0 | 3.5 | 0.00 | 0.00 | 0.00 | 42 | 1016.4 |
| 20260901225018 | 97 | 0 | 0.0 | 3.5 | 0.00 | 0.00 | 0.00 | 41 | 1016.3 |
| 20260901224542 | 97 | 0 | 0.0 | 3.5 | 0.00 | 0.00 | 0.00 | 41 | 1016.3 |
| 20260901224019 | 98 | 55 | 0.0 | 3.5 | 0.00 | 0.00 | 0.00 | 40 | 1016.3 |
| 20260901223520 | 98 | 352 | 0.0 | 3.5 | 0.00 | 0.00 | 0.00 | 40 | 1016.4 |
| 20260901223050 | 98 | 0 | 0.0 | 2.6 | 0.00 | 0.00 | 0.00 | 40 | 1016.3 |
| 20260901222518 | 97 | 42 | 0.0 | 1.7 | 0.00 | 0.00 | 0.00 | 41 | 1016.3 |
| 20260901222020 | 97 | 0 | 0.0 | 1.7 | 0.00 | 0.00 | 0.00 | 41 | 1016.2 |
| 20260901221540 | 97 | 0 | 0.0 | 1.7 | 0.00 | 0.00 | 0.00 | 41 | 1016.2 |
| 20260901221020 | 97 | 24 | 0.0 | 1.7 | 0.00 | 0.00 | 0.00 | 41 | 1016.1 |
| 20260901220518 | 97 | 0 | 0.0 | 1.7 | 0.00 | 0.00 | 0.00 | 40 | 1016.2 |
| 20260901220040 | 97 | 0 | 0.0 | 3.5 | 0.00 | 0.00 | 0.00 | 41 | 1016.2 |
| 20260901215522 | 98 | 0 | 0.0 | 4.3 | 0.00 | 0.00 | 0.00 | 40 | 1016.2 |
| 20260901215024 | 98 | 0 | 0.9 | 4.3 | 0.00 | 0.00 | 0.00 | 40 | 1016.3 |
| 20260901214541 | 98 | 0 | 0.9 | 3.5 | 0.00 | 0.00 | 0.00 | 40 | 1016.2 |
| 20260901214020 | 98 | 0 | 0.0 | 3.5 | 0.00 | 0.00 | 0.00 | 40 | 1016.3 |
| 20260901213519 | 98 | 0 | 0.0 | 2.6 | 0.00 | 0.00 | 0.00 | 40 | 1016.3 |
| 20260901213044 | 98 | 0 | 0.0 | 3.5 | 0.00 | 0.00 | 0.00 | 41 | 1016.2 |
| 20260901212520 | 98 | 0 | 0.9 | 3.5 | 0.00 | 0.00 | 0.00 | 40 | 1016.3 |
| 20260901212020 | 98 | 94 | 0.0 | 4.3 | 0.00 | 0.00 | 0.00 | 39 | 1016.4 |
| 20260901211540 | 98 | 42 | 0.9 | 4.3 | 0.00 | 0.00 | 0.00 | 41 | 1016.4 |
| 20260901211024 | 98 | 22 | 0.9 | 5.2 | 0.00 | 0.00 | 0.00 | 40 | 1016.4 |
| 20260901210521 | 99 | 29 | 0.0 | 5.2 | 0.00 | 0.00 | 0.00 | 39 | 1016.4 |
| 20260901210042 | 99 | 82 | 0.0 | 5.2 | 0.00 | 0.00 | 0.00 | 40 | 1016.4 |
| 20260901205522 | 99 | 37 | 0.0 | 2.6 | 0.00 | 0.00 | 0.00 | 40 | 1016.5 |
| 20260901205017 | 99 | 0 | 0.0 | 2.6 | 0.00 | 0.00 | 0.00 | 40 | 1016.6 |
| 20260901204541 | 99 | 0 | 0.0 | 2.6 | 0.00 | 0.00 | 0.00 | 41 | 1016.4 |
| 20260901204018 | 99 | 243 | 0.0 | 2.6 | 0.00 | 0.00 | 0.00 | 40 | 1016.5 |